Regional Weather Roundup
Issued by NWS Goodland, KS

Home | Current Version | Previous Version | Text Only | Print | Product List | Glossary Off
Versions: 1 2 3 4 5 6 7 8 9 10 11 12 13 14 15 16 17 18 19 20 21 22 23 24 25 26 27 28 29 30 31 32 33 34 35 36 37 38 39 40 41 42 43 44 45 46 47 48 49 50

000
ASUS43 KGLD 100259
RWRGLD

GOODLAND FORECAST AREA HOURLY WEATHER ROUNDUP
NATIONAL WEATHER SERVICE GOODLAND KS
900 PM MDT WED JUL 09 2014

...OFFICIAL OBSERVATIONS...

CITY           SKY/WX    TMP DP  RH WIND       PRES   REMARKS
GOODLAND KS    CLOUDY    78  64  61 SE22G31   29.93F
HILL CITY KS   CLOUDY    81  55  40 SE9       29.97R
IMPERIAL NEB   MOCLDY    79  62  56 SE16      29.91S
MCCOOK NEB     CLOUDY    81  64  56 S20G25    29.90F
AKRON CO       MOCLDY    71  52  50 S12G23    29.97F
BURLINGTON CO  TSTM      61  53  75 NE18G62   30.10R
LIMON CO       MOCLDY    69  45  41 N7        30.03F
$$

...UNOFFICIAL OBSERVATIONS...

CITY           SKY/WX    TMP DP  RH WIND       PRES   REMARKS
COLBY KS       CLEAR     79  70  73 SE14      29.96S
GOVE KS          N/A     77  32  19 CALM        N/A
LENORA KS        N/A     79  32  18 MISG        N/A
NORTON KS      CLEAR     79  48  34 SE13G28   29.92F
SHARON SPRINGS   N/A     80  63  56 SE13G20     N/A
YUMA CO          N/A     70  55  58 SW10        N/A
$$



USA.gov is the U.S. government's official web portal to all federal, state and local government web resources and services.